Regional Weather Roundup
Issued by NWS

Home | Current Version | Previous Version | Graphics & Text | Print | Product List | Glossary On
Versions: 1 2 3 4 5 6 7 8 9 10 11 12 13 14 15 16 17 18 19 20 21 22 23 24 25 26 27 28 29 30 31 32 33 34 35 36 37 38 39 40 41 42 43 44 45 46 47 48 49 50
000
ASUS43 KOAX 110310
RWRNE

WEATHER ROUNDUP FOR NEBRASKA
NATIONAL WEATHER SERVICE OMAHA NE
900 PM CST SAT DEC 10 2016

NOTES: SATELLITE DATA IS BEING USED TO AUGMENT CLOUD COVER ABOVE
       12000 FEET.
       "FAIR" INDICATES FEW OR NO CLOUDS BELOW 12,000 FEET WITH NO
       SIGNIFICANT WEATHER AND/OR OBSTRUCTIONS TO VISIBILITY.

  * THESE STATIONS DO NOT REPORT WEATHER SUCH AS RAIN...SNOW OR FOG.

NEZ001>004-019>022-054>056-110400-
NEBRASKA PANHANDLE

CITY           SKY/WX    TMP DP  RH WIND       PRES   REMARKS
SCOTTSBLUFF    CLOUDY    22  17  81 NE8       29.64F WCI  12
ALLIANCE       CLOUDY    26  22  84 S9        29.61F WCI  17
CHADRON        CLOUDY     6   3  87 N7        29.68R WCI  -6
KIMBALL        CLOUDY    41  33  73 SW10      29.67F
SIDNEY         CLOUDY    34  27  75 SW10      29.67F WCI  26
$$

NEZ057>060-069>072-079>082-110400-
SOUTHWEST NEBRASKA

CITY           SKY/WX    TMP DP  RH WIND       PRES   REMARKS
NORTH PLATTE   CLOUDY    28  22  78 CALM      29.74F
IMPERIAL       CLOUDY    28  24  85 CALM      29.73F
LEXINGTON      CLOUDY    31  24  75 S5        29.77F WCI  26
MCCOOK         CLOUDY    27  23  85 E3        29.75F
OGALLALA       CLOUDY    30  26  84 SW3       29.71F
$$

NEZ005>010-023>029-035>040-094-110400-
NORTH CENTRAL NEBRASKA

CITY           SKY/WX    TMP DP  RH WIND       PRES   REMARKS
VALENTINE      CLOUDY    12   9  87 E5        29.70F WCI   4
AINSWORTH      CLOUDY    28  24  85 S9        29.71F WCI  19
BROKEN BOW     CLOUDY    30  23  75 S7        29.76F WCI  23
O`NEILL        CLOUDY    27  22  80 SE7       29.81F WCI  20
ORD            CLOUDY    29  19  66 SE9       29.79F WCI  20
THEDFORD       CLOUDY    30  25  81 S7        29.72F WCI  23
$$

NEZ041-046>049-061>064-073>077-083>087-110400-
SOUTH CENTRAL NEBRASKA

CITY           SKY/WX    TMP DP  RH WIND       PRES   REMARKS
GRAND ISLAND   CLOUDY    31  23  72 S15       29.82F WCI  20
AURORA         CLOUDY    31  22  68 SE12      29.84F WCI  22
HASTINGS       CLOUDY    31  22  69 SE9       29.83F WCI  23
HEBRON         CLOUDY    31  22  68 SE9       29.88F WCI  23
HOLDREGE       CLOUDY    30  24  78 SE9       29.77F WCI  21
KEARNEY *      CLOUDY    30  21  69 SE6       29.79F WCI  24
YORK           CLOUDY    32  23  69 SE9       29.87F WCI  24
$$

NEZ011>018-030>034-042>045-110400-
NORTHEAST NEBRASKA

CITY           SKY/WX    TMP DP  RH WIND       PRES   REMARKS
NORFOLK        CLOUDY    26  18  71 SE10      29.87F WCI  16
ALBION         CLOUDY    28  19  69 SE7       29.86S WCI  21
BLAIR          MOCLDY    31  21  66 SE12G18   29.93F WCI  22
FREMONT        MOCLDY    30  21  68 SE10      29.93F WCI  21
TEKAMAH        CLOUDY    28  20  71 SE12      29.96F WCI  18
WAYNE          CLOUDY    26  21  82 E10       29.92F WCI  16
$$

NEZ050>053-065>068-078-088>093-110400-
SOUTHEAST NEBRASKA

CITY           SKY/WX    TMP DP  RH WIND       PRES   REMARKS
LINCOLN        CLOUDY    32  21  64 SE13      29.92F WCI  22
OMAHA EPPLEY   CLOUDY    32  19  58 SE14      29.97F WCI  22
BEATRICE       CLOUDY    32  23  68 SE8       29.92S WCI  25
FALLS CITY     CLOUDY    32  22  66 SE10      29.97F WCI  24
NEBRASKA CITY  MOCLDY    32  18  57 SE9       29.97F WCI  24
PLATTSMOUTH    MOCLDY    32  18  57 SE13      29.94F WCI  22
$$

NEZ044-045-051>053-067-110400-
OMAHA AREA

CITY           SKY/WX    TMP DP  RH WIND       PRES   REMARKS
OMAHA EPPLEY   CLOUDY    32  19  58 SE14      29.97F WCI  22
BLAIR          MOCLDY    31  21  66 SE12G18   29.93F WCI  22
FREMONT        MOCLDY    30  21  68 SE10      29.93F WCI  21
MILLARD        MOCLDY    33  21  61 SE13      29.95F WCI  24
OFFUTT AFB     MOCLDY    31  20  64 SE15      29.95F WCI  21
PLATTSMOUTH    MOCLDY    32  18  57 SE13      29.94F WCI  22
WAHOO          FAIR      31  20  64 SE10      29.93F WCI  22
$$




USA.gov is the U.S. government's official web portal to all federal, state and local government web resources and services.